FW1939 Weather Reports


time (UTC)temp
C
wind
direction
speed
KPH
gust
KPH
rain 1hr
cm
rain 24hr
cm
rain mn
cm
humidity
%
barometer
mb
20260503212306 16 38 1.6 11.3 0.00 0.00 0.00 55 1013.7
20260503211757 17 30 3.2 14.5 0.00 0.00 0.00 54 1013.8
20260503211243 17 249 4.8 16.1 0.00 0.00 0.00 52 1013.8
20260503210733 17 192 1.6 12.9 0.00 0.00 0.00 53 1013.8
20260503210226 17 217 0.0 3.2 0.00 0.00 0.00 53 1013.9
20260503205720 18 320 1.6 11.3 0.00 0.00 0.00 52 1014.0
20260503205447 18 234 3.2 17.7 0.00 0.00 0.00 52 1014.0
20260503204708 17 284 3.2 17.7 0.00 0.00 0.00 54 1013.9
20260503204208 17 273 1.6 9.7 0.00 0.00 0.00 54 1013.9
20260503203707 17 38 3.2 17.7 0.00 0.00 0.00 53 1014.0
20260503203206 17 274 4.8 17.7 0.00 0.00 0.00 53 1014.0
20260503202644 17 180 1.6 12.9 0.00 0.00 0.00 53 1014.1
20260503202137 17 26 1.6 11.3 0.00 0.00 0.00 56 1014.2
20260503201631 17 30 4.8 17.7 0.00 0.00 0.00 52 1014.2
20260503201346 17 130 6.4 17.7 0.00 0.00 0.00 51 1014.0
20260503200619 17 153 4.8 14.5 0.00 0.00 0.00 51 1014.0
20260503200110 17 207 4.8 12.9 0.00 0.00 0.00 52 1014.1
20260503195607 16 192 6.4 19.3 0.00 0.00 0.00 54 1014.1
20260503195102 17 215 6.4 19.3 0.00 0.00 0.00 53 1014.5
20260503194556 17 245 4.8 14.5 0.00 0.00 0.00 55 1014.5
20260503194050 16 158 6.4 14.5 0.00 0.00 0.00 54 1014.6
20260503193544 16 163 4.8 14.5 0.00 0.00 0.00 55 1014.6
20260503193523 16 173 4.8 14.5 0.00 0.00 0.00 56 1014.6
20260503192528 16 71 6.4 14.5 0.00 0.00 0.00 56 1014.6
20260503192510 16 71 4.8 14.5 0.00 0.00 0.00 54 1014.6
20260503191521 16 193 3.2 12.9 0.00 0.00 0.00 58 1014.7
20260503191014 16 180 3.2 17.7 0.00 0.00 0.00 59 1014.7
20260503190740 15 220 4.8 17.7 0.00 0.00 0.00 58 1014.6
20260503190226 15 185 3.2 9.7 0.00 0.00 0.00 61 1014.5
20260503185457 15 180 3.2 12.9 0.00 0.00 0.00 61 1014.6
20260503184945 15 159 1.6 12.9 0.00 0.00 0.00 61 1014.6
20260503184443 15 228 1.6 9.7 0.00 0.00 0.00 62 1014.6
20260503183937 15 146 3.2 12.9 0.00 0.00 0.00 59 1014.6
20260503183432 15 209 4.8 14.5 0.00 0.00 0.00 60 1014.8
20260503182925 15 225 6.4 14.5 0.00 0.00 0.00 62 1014.7
20260503182644 15 231 8.0 19.3 0.00 0.00 0.00 61 1014.7
20260503181914 15 194 6.4 19.3 0.00 0.00 0.00 63 1014.7
20260503181403 14 151 6.4 14.5 0.00 0.00 0.00 64 1014.6
20260503180857 14 221 4.8 12.9 0.00 0.00 0.00 64 1014.7
20260503180839 14 173 3.2 12.9 0.00 0.00 0.00 66 1014.7
20260503175850 13 209 4.8 11.3 0.00 0.00 0.00 68 1014.7
20260503175344 13 238 4.8 11.3 0.00 0.00 0.00 68 1014.6
20260503174840 13 221 3.2 9.7 0.00 0.00 0.00 70 1014.6
20260503174342 13 240 3.2 8.0 0.00 0.00 0.00 71 1014.7
20260503174057 13 224 3.2 11.3 0.00 0.00 0.00 73 1014.6
20260503173314 13 234 4.8 11.3 0.00 0.00 0.00 73 1014.6
20260503172814 13 186 4.8 14.5 0.00 0.00 0.00 73 1014.7
20260503172308 13 103 4.8 14.5 0.00 0.00 0.00 72 1014.7
20260503171801 13 203 4.8 14.5 0.00 0.00 0.00 74 1014.4
20260503171255 13 186 4.8 16.1 0.00 0.00 0.00 73 1014.4
20260503170749 12 186 4.8 16.1 0.00 0.00 0.00 75 1014.4
20260503170243 12 130 4.8 16.1 0.00 0.00 0.00 78 1014.4
20260503160132 11 140 4.8 12.9 0.00 0.00 0.00 82 1013.8
20260503150520 12 225 1.6 8.0 0.00 0.00 0.00 81 1013.4
20260503150510 11 164 1.6 8.0 0.00 0.00 0.00 81 1013.3
20260503131213 10 201 0.0 3.2 0.00 0.00 0.00 87 1012.3
20260503130702 10 200 0.0 3.2 0.00 0.00 0.00 87 1012.2
20260503130159 10 200 0.0 1.6 0.00 0.00 0.00 87 1012.2
20260503110726 8 166 0.0 0.0 0.00 0.00 0.00 85 1011.9
20260503110439 9 166 0.0 0.0 0.00 0.00 0.00 85 1011.9
20260503090502 11 220 0.0 4.8 0.00 0.00 0.00 81 1012.2
20260503081352 11 167 1.6 6.4 0.00 0.00 0.00 81 1012.7
20260503080853 11 159 1.6 6.4 0.00 0.00 0.00 81 1012.7
20260503080351 11 190 1.6 4.8 0.00 0.00 0.00 81 1012.7
20260503072248 11 228 0.0 6.4 0.00 0.00 0.00 82 1012.5
20260503071735 11 180 1.6 6.4 0.00 0.00 0.00 82 1012.5
20260503071224 11 247 1.6 9.7 0.00 0.00 0.00 82 1012.5
20260503070935 11 161 1.6 9.7 0.00 0.00 0.00 82 1012.5
20260503070427 11 245 1.6 8.0 0.00 0.00 0.00 82 1012.4
20260503060113 11 162 1.6 6.4 0.00 0.00 0.00 83 1012.2
20260503055012 11 212 1.6 8.0 0.00 0.00 0.00 84 1012.0
20260503054513 11 200 0.0 6.4 0.00 0.00 0.00 84 1012.1
20260503054006 11 157 0.0 3.2 0.00 0.00 0.00 84 1012.0
20260503053804 11 175 0.0 3.2 0.00 0.00 0.00 84 1012.0
20260503053650 11 162 0.0 6.4 0.00 0.00 0.00 85 1011.9
20260503053054 11 205 0.0 6.4 0.00 0.00 0.00 85 1012.0
20260503051955 11 159 0.0 3.2 0.00 0.00 0.00 85 1012.0
20260503051434 11 166 1.6 8.0 0.00 0.00 0.00 85 1011.8
20260503050930 11 123 3.2 8.0 0.00 0.00 0.00 85 1011.8
20260503050432 11 153 1.6 8.0 0.00 0.00 0.00 85 1011.8
20260503045929 11 180 0.0 3.2 0.00 0.00 0.00 86 1011.8
20260503045424 11 252 0.0 3.2 0.00 0.00 0.00 86 1011.7
20260503044918 11 250 3.2 14.5 0.00 0.00 0.00 86 1011.6
20260503044630 11 209 1.6 14.5 0.00 0.00 0.00 86 1011.4
20260503043906 11 197 0.0 6.4 0.00 0.00 0.00 86 1011.3
20260503043407 11 205 1.6 8.0 0.00 0.00 0.00 86 1011.3
20260503042849 11 205 3.2 9.7 0.00 0.00 0.00 86 1011.1
20260503042343 11 153 3.2 12.9 0.00 0.00 0.00 86 1011.1
20260503041841 11 231 1.6 12.9 0.00 0.00 0.00 86 1011.2
20260503041337 11 183 1.6 9.7 0.00 0.00 0.00 86 1011.2
20260503040830 11 205 1.6 6.4 0.00 0.00 0.00 86 1011.1
20260503040324 11 127 1.6 12.9 0.00 0.00 0.00 86 1011.1
20260503035818 11 211 4.8 14.5 0.00 0.00 0.00 86 1011.1
20260503035312 11 194 6.4 14.5 0.00 0.00 0.00 86 1011.0
20260503035022 11 207 6.4 14.5 0.00 0.00 0.00 85 1011.0
20260503034259 11 204 4.8 14.5 0.00 0.00 0.00 85 1011.1
20260503034240 11 217 4.8 12.9 0.00 0.00 0.00 85 1011.0
20260503033248 11 168 3.2 12.9 0.00 0.00 0.00 85 1011.0
20260503032742 11 240 3.2 9.7 0.00 0.00 0.00 84 1011.0
20260503032236 11 211 4.8 11.3 0.00 0.00 0.00 84 1011.0
20260503031730 11 226 3.2 11.3 0.00 0.00 0.00 84 1011.1
20260503031221 11 170 1.6 9.7 0.00 0.00 0.00 84 1011.1
20260503030718 11 163 1.6 9.7 0.00 0.00 0.00 83 1011.1
20260503030212 11 198 1.6 11.3 0.00 0.00 0.00 83 1011.0
20260503025707 11 181 4.8 11.3 0.00 0.00 0.00 83 1010.8
20260503025201 12 144 4.8 11.3 0.00 0.00 0.00 83 1010.8
20260503024653 12 171 3.2 11.3 0.00 0.00 0.00 82 1010.9
20260503024407 12 168 3.2 11.3 0.00 0.00 0.00 82 1010.9
20260503023901 12 244 4.8 11.3 0.00 0.00 0.00 82 1010.9
20260503023131 12 173 6.4 14.5 0.00 0.00 0.00 81 1010.9
20260503022630 12 173 8.0 16.1 0.00 0.00 0.00 81 1010.8
20260503022123 12 242 8.0 16.1 0.00 0.00 0.00 80 1010.9
20260503021618 12 164 6.4 16.1 0.00 0.00 0.00 79 1010.9
20260503021112 12 196 4.8 12.9 0.00 0.00 0.00 79 1011.0
20260503020831 13 171 3.2 11.3 0.00 0.00 0.00 78 1011.0
20260503020101 13 237 3.2 11.3 0.00 0.00 0.00 78 1010.9
20260503015550 13 231 4.8 14.5 0.00 0.00 0.00 78 1010.9
20260503015047 13 163 4.8 14.5 0.00 0.00 0.00 77 1010.9
20260503014540 13 157 6.4 17.7 0.00 0.00 0.00 76 1010.9
20260503014034 14 239 6.4 19.3 0.00 0.00 0.00 76 1010.8
20260503013522 14 255 6.4 19.3 0.00 0.00 0.00 75 1010.8
20260503013017 14 211 8.0 22.5 0.00 0.00 0.00 74 1010.8
20260503012739 14 144 9.7 22.5 0.00 0.00 0.00 73 1010.6
20260503012011 15 209 6.4 20.9 0.00 0.00 0.00 73 1010.8
20260503011504 15 249 6.4 16.1 0.00 0.00 0.00 72 1010.8
20260503010957 15 188 4.8 12.9 0.00 0.00 0.00 71 1010.8
20260503010452 15 189 3.2 11.3 0.00 0.00 0.00 70 1010.9
20260503010205 15 34 4.8 14.5 0.00 0.00 0.00 70 1010.9
20260503005440 16 181 4.8 14.5 0.00 0.00 0.00 69 1011.0
20260503004927 16 207 4.8 12.9 0.00 0.00 0.00 67 1011.1
20260503004423 16 296 4.8 12.9 0.00 0.00 0.00 67 1011.0
20260503004147 16 266 4.8 12.9 0.00 0.00 0.00 66 1011.0
20260503003415 17 198 6.4 14.5 0.00 0.00 0.00 65 1011.1
20260503002910 17 221 3.2 14.5 0.00 0.00 0.00 65 1011.1
20260503002404 17 175 3.2 16.1 0.00 0.00 0.00 65 1011.1
20260503001851 17 158 4.8 16.1 0.00 0.00 0.00 65 1011.2
20260503001606 17 92 3.2 14.5 0.00 0.00 0.00 65 1011.3
20260503000846 17 186 4.8 14.5 0.00 0.00 0.00 64 1011.1
20260503000339 17 229 3.2 11.3 0.00 0.00 0.00 62 1011.1
20260503000058 17 241 4.8 12.9 0.00 0.00 0.00 64 1011.1
20260502235322 17 145 6.4 17.7 0.00 0.00 0.00 64 1011.1
20260502234821 18 240 6.4 17.7 0.00 0.00 0.00 64 1011.1
20260502234315 18 171 6.4 12.9 0.00 0.00 0.00 63 1011.1
20260502233806 18 186 4.8 12.9 0.00 0.00 0.00 62 1011.1
20260502233303 18 234 4.8 14.5 0.00 0.00 0.00 62 1011.2
20260502232758 18 227 6.4 19.3 0.00 0.00 0.00 63 1011.2
20260502232251 17 211 8.0 19.3 0.00 0.00 0.00 64 1011.2
20260502231746 17 243 9.7 17.7 0.00 0.00 0.00 63 1011.2
20260502231725 18 217 9.7 17.7 0.00 0.00 0.00 63 1011.4
20260502230734 18 163 11.3 19.3 0.00 0.00 0.00 63 1011.5
20260502230445 18 196 11.3 20.9 0.00 0.00 0.00 63 1011.5
20260502225722 18 171 9.7 20.9 0.00 0.00 0.00 63 1011.6
20260502225216 18 179 9.7 19.3 0.00 0.00 0.00 63 1011.6
20260502224709 18 229 6.4 12.9 0.00 0.00 0.00 61 1011.7
20260502224203 19 244 6.4 14.5 0.00 0.00 0.00 61 1012.0
20260502223659 18 167 6.4 14.5 0.00 0.00 0.00 62 1012.0
20260502223151 18 214 6.4 19.3 0.00 0.00 0.00 62 1012.0
20260502222641 18 248 8.0 19.3 0.00 0.00 0.00 60 1012.2
20260502222139 19 167 6.4 16.1 0.00 0.00 0.00 61 1012.3
20260502221634 19 183 8.0 16.1 0.00 0.00 0.00 62 1012.3
20260502221123 18 210 8.0 16.1 0.00 0.00 0.00 63 1012.3
20260502220621 18 259 6.4 16.1 0.00 0.00 0.00 63 1012.4
20260502220116 18 200 8.0 24.1 0.00 0.00 0.00 64 1012.5
20260502215609 18 244 6.4 24.1 0.00 0.00 0.00 64 1012.5
20260502215104 18 230 8.0 17.7 0.00 0.00 0.00 65 1012.6
20260502214553 18 249 9.7 17.7 0.00 0.00 0.00 64 1012.8
20260502214051 18 229 8.0 17.7 0.00 0.00 0.00 65 1013.0
20260502213545 18 217 8.0 17.7 0.00 0.00 0.00 64 1013.0
20260502213307 18 162 8.0 17.7 0.00 0.00 0.00 65 1013.0
20260502212534 18 234 8.0 22.5 0.00 0.00 0.00 64 1013.0